This is the latest recevied weather packets stored in our database for station/object K4CRS-13. If no packets are shown the sender has not sent any weather packets the latest 10 day(s).
| Time | Temp. | Humidity | Pressure | Rain* | Wind** | Luminosity | Snow |
|---|---|---|---|---|---|---|---|
| 1788105425 | 31.11° C | 69% | 1056 hPa | 0 mm | - | 394 W/m² | - |
| 1788105121 | 32.78° C | 64% | 1056.1 hPa | 0 mm | - | 233 W/m² | - |
| 1788104816 | 31.67° C | 68% | 1056 hPa | 0 mm | - | 727 W/m² | - |
| 1788104511 | 32.78° C | 64% | 1056.1 hPa | 0 mm | - | 701 W/m² | - |
| 1788104208 | 32.22° C | 66% | 1056.2 hPa | 0 mm | - | 666 W/m² | - |
| 1788103908 | 31.67° C | 67% | 1056.1 hPa | 0 mm | - | 647 W/m² | - |
| 1788103607 | 31.67° C | 71% | 1056.2 hPa | 0 mm | - | 678 W/m² | - |
| 1788103306 | 31.67° C | 69% | 1056 hPa | 0 mm | - | 335 W/m² | - |
| 1788103001 | 31.11° C | 71% | 1056.1 hPa | 0 mm | - | 617 W/m² | - |
| 1788102701 | 31.11° C | 70% | 1056.1 hPa | 0 mm | - | 575 W/m² | - |
| 1788102401 | 31.11° C | 70% | 1056.3 hPa | 0 mm | - | 544 W/m² | - |
| 1788102096 | 31.11° C | 69% | 1056 hPa | 0 mm | - | 542 W/m² | - |
| 1788101795 | 31.11° C | 69% | 1056.1 hPa | 0 mm | - | 530 W/m² | - |
| 1788101491 | 31.67° C | 69% | 1056.4 hPa | 0 mm | - | 512 W/m² | - |
| 1788101186 | 31.11° C | 70% | 1056.3 hPa | 0 mm | - | 499 W/m² | - |
| 1788100882 | 30.56° C | 72% | 1056.3 hPa | 0 mm | - | 481 W/m² | - |
| 1788100578 | 30.56° C | 72% | 1056.2 hPa | 0 mm | - | 471 W/m² | - |
| 1788100276 | 30.56° C | 73% | 1056 hPa | 0 mm | - | 452 W/m² | - |
| 1788099972 | 31.11° C | 72% | 1056 hPa | 0 mm | - | 433 W/m² | - |
| 1788099666 | 31.11° C | 71% | 1056 hPa | 0 mm | - | 418 W/m² | - |
| 1788099362 | 30.56° C | 73% | 1056.1 hPa | 0 mm | - | 401 W/m² | - |
| 1788099057 | 30° C | 75% | 1055.9 hPa | 0 mm | - | 385 W/m² | - |
| 1788098757 | 29.44° C | 76% | 1056.2 hPa | 0 mm | - | 118 W/m² | - |
| 1788098452 | 29.44° C | 77% | 1056.2 hPa | 0 mm | - | 352 W/m² | - |
| 1788098147 | 28.89° C | 79% | 1055.9 hPa | 0 mm | - | 335 W/m² | - |
* Rain latest hour (hover to see other rain measurements)
** Current wind speed in m/s (hover to see current wind gust speed)